Weather History for Tarboro, NC

Change the Weather History Date:

Sunday, May 5, 2013

  Actual Average Record
Temperature  
Mean Temperature 56 °F -  
Max Temperature 87 °F 77 °F 91 °F (1965)
Min Temperature 48 °F 49 °F 37 °F (1973)
Degree Days  
Heating Degree Days 10    
Growing Degree Days 6 (Base 50)    
Moisture  
Dew Point 51 °F    
Average Humidity 82    
Maximum Humidity 91    
Minimum Humidity 74    
Precipitation  
Precipitation 0.00 in - - ()
Sea Level Pressure  
Sea Level Pressure 30.07 in    
Wind  
Wind Speed 9 mph (NE)    
Max Wind Speed 18 mph    
Max Gust Speed 23 mph    
Visibility 9 miles    
Events      
Averages and records for this station are not official NWS values.
T = Trace of Precipitation, MM = Missing Value Source: NWS Daily Summary

Daily Weather History Graph

Daily Weather History Graph

Search for Another Location

Airport:

Trip Planner

Search our weather history database for the weather conditions in past years. The results will help you decide how hot, cold, wet, or windy it might be!

Date:

Astronomy

May. 05, 2013 Rise Set
Actual Time 6:13 AM EDT 8:00 PM EDT
Civil Twilight 5:45 AM EDT 8:28 PM EDT
Nautical Twilight 5:12 AM EDT 9:02 PM EDT
Astronomical Twilight 4:36 AM EDT 9:38 PM EDT
Moon 3:34 AM EDT (5/5) 4:05 PM EDT (5/5)
Length of Visible Light 14h 43m
Length of Day
13h 47m
Waning Crescent, 18% of the Moon is Illuminated
May 5
Waning Crescent
May 9
New
May 18
First Quarter
May 25
Full
May 31
Last Quarter

Hourly Weather History & Observations

Time (EDT) Temp. Dew Point Humidity Pressure Visibility Wind Dir Wind Speed Gust Speed Precip Events Conditions
12:15 AM 52.0 °F 47.1 °F 83% 30.14 in 10.0 mi NE 6.9 mph - N/A   Scattered Clouds
12:35 AM 51.1 °F 46.6 °F 85% 30.13 in 10.0 mi NE 8.1 mph - N/A   Clear
12:55 AM 50.4 °F 46.4 °F 86% 30.13 in 10.0 mi NE 8.1 mph - N/A   Clear
1:15 AM 49.8 °F 46.4 °F 88% 30.11 in 10.0 mi NE 8.1 mph - N/A   Scattered Clouds
1:35 AM 49.5 °F 46.4 °F 89% 30.10 in 10.0 mi NE 8.1 mph - N/A   Scattered Clouds
1:55 AM 49.3 °F 46.2 °F 89% 30.10 in 7.0 mi NE 6.9 mph - N/A   Clear
2:15 AM 49.1 °F 46.2 °F 90% 30.09 in 7.0 mi NE 8.1 mph - N/A   Scattered Clouds
2:35 AM 49.1 °F 46.2 °F 90% 30.09 in 7.0 mi NNE 6.9 mph - N/A   Mostly Cloudy
2:55 AM 48.7 °F 45.9 °F 90% 30.09 in 7.0 mi NNE 6.9 mph - N/A   Mostly Cloudy
3:15 AM 48.6 °F 45.7 °F 90% 30.08 in 7.0 mi NE 5.8 mph - N/A   Scattered Clouds
3:35 AM 48.4 °F 45.7 °F 90% 30.08 in 7.0 mi NE 6.9 mph - N/A   Scattered Clouds
3:55 AM 48.6 °F 45.9 °F 90% 30.08 in 7.0 mi NNE 5.8 mph - N/A   Mostly Cloudy
4:15 AM 48.6 °F 45.9 °F 90% 30.07 in 7.0 mi NNE 5.8 mph - N/A   Mostly Cloudy
4:35 AM 48.2 °F 45.7 °F 91% 30.07 in 7.0 mi NE 8.1 mph - N/A   Overcast
4:55 AM 48.2 °F 45.7 °F 91% 30.07 in 7.0 mi NE 6.9 mph - N/A   Overcast
5:15 AM 48.4 °F 45.9 °F 91% 30.07 in 7.0 mi NNE 5.8 mph 9.2 mph N/A   Overcast
5:35 AM 48.4 °F 45.9 °F 91% 30.07 in 7.0 mi NNE 5.8 mph - N/A   Overcast
5:55 AM 48.4 °F 45.9 °F 91% 30.07 in 7.0 mi NNE 8.1 mph - N/A   Overcast
6:15 AM 48.7 °F 46.0 °F 90% 30.08 in 7.0 mi NE 4.6 mph - N/A   Overcast
6:55 AM 50.0 °F 46.6 °F 88% 30.09 in 7.0 mi NE 9.2 mph - N/A   Overcast
7:15 AM 50.5 °F 46.8 °F 87% 30.09 in 7.0 mi ENE 8.1 mph - N/A   Overcast
7:35 AM 51.3 °F 47.1 °F 86% 30.10 in 10.0 mi NE 10.4 mph 16.1 mph N/A   Overcast
7:55 AM 52.0 °F 47.3 °F 84% 30.10 in 10.0 mi NE 6.9 mph - N/A   Overcast
8:15 AM 52.9 °F 47.8 °F 83% 30.10 in 10.0 mi NE 9.2 mph - N/A   Overcast
8:35 AM 54.1 °F 48.4 °F 81% 30.10 in 10.0 mi NE 9.2 mph - N/A   Overcast
8:55 AM 54.9 °F 48.7 °F 80% 30.09 in 10.0 mi NNE 11.5 mph - N/A   Overcast
9:15 AM 55.4 °F 49.1 °F 79% 30.10 in 10.0 mi NE 9.2 mph - N/A   Overcast
9:35 AM 55.9 °F 49.5 °F 79% 30.10 in 10.0 mi ENE 10.4 mph 16.1 mph N/A   Overcast
9:55 AM 56.8 °F 50.0 °F 78% 30.10 in 10.0 mi ENE 9.2 mph - N/A   Overcast
10:15 AM 57.7 °F 50.5 °F 77% 30.10 in 10.0 mi NE 9.2 mph - N/A   Overcast
10:35 AM 58.1 °F 50.9 °F 77% 30.10 in 7.0 mi ENE 11.5 mph 16.1 mph N/A   Overcast
10:55 AM 57.9 °F 52.2 °F 81% 30.09 in 5.0 mi ENE 6.9 mph - N/A   Haze
11:15 AM 59.0 °F 52.5 °F 79% 30.09 in 10.0 mi ENE 11.5 mph - N/A   Overcast
11:35 AM 60.3 °F 52.9 °F 77% 30.09 in 7.0 mi NE 11.5 mph - N/A   Overcast
11:55 AM 61.3 °F 52.9 °F 74% 30.09 in 10.0 mi ENE 10.4 mph - N/A   Overcast
12:15 PM 61.5 °F 53.8 °F 76% 30.08 in 10.0 mi ENE 10.4 mph - N/A   Overcast
12:35 PM 61.9 °F 53.8 °F 75% 30.08 in 7.0 mi ENE 8.1 mph 18.4 mph N/A   Overcast
12:55 PM 61.5 °F 54.9 °F 79% 30.08 in 3.0 mi ENE 11.5 mph 17.3 mph N/A   Haze
1:15 PM 62.1 °F 56.8 °F 83% 30.07 in 7.0 mi NE 9.2 mph 18.4 mph N/A   Overcast
1:35 PM 63.5 °F 56.8 °F 79% 30.07 in 10.0 mi ENE 11.5 mph 23.0 mph N/A   Overcast
1:55 PM 62.8 °F 55.2 °F 76% 30.07 in 10.0 mi ENE 16.1 mph 19.6 mph N/A   Overcast
2:15 PM 62.2 °F 54.9 °F 77% 30.07 in 10.0 mi ENE 16.1 mph 23.0 mph N/A   Overcast
2:35 PM 63.1 °F 55.0 °F 75% 30.07 in 10.0 mi ENE 18.4 mph - N/A   Overcast
2:55 PM 62.4 °F 54.9 °F 76% 30.06 in 10.0 mi ENE 9.2 mph 21.9 mph N/A   Overcast
3:15 PM 62.6 °F 55.0 °F 76% 30.06 in 10.0 mi ENE 12.7 mph 20.7 mph N/A   Overcast
3:35 PM 62.6 °F 55.0 °F 76% 30.06 in 10.0 mi ENE 10.4 mph 19.6 mph N/A   Overcast
3:55 PM 62.1 °F 55.0 °F 78% 30.05 in 10.0 mi NE 11.5 mph - N/A   Overcast
4:15 PM 62.4 °F 55.0 °F 77% 30.05 in 10.0 mi East 9.2 mph 17.3 mph N/A   Overcast
4:35 PM 62.6 °F 54.7 °F 75% 30.05 in 10.0 mi ENE 12.7 mph 18.4 mph N/A   Overcast
4:55 PM 63.0 °F 54.5 °F 74% 30.04 in 10.0 mi ENE 11.5 mph 20.7 mph N/A   Overcast
5:15 PM 63.1 °F 54.7 °F 74% 30.04 in 10.0 mi ENE 11.5 mph 19.6 mph N/A   Overcast
5:35 PM 63.1 °F 54.7 °F 74% 30.04 in 10.0 mi ENE 10.4 mph 18.4 mph N/A   Overcast
5:55 PM 62.4 °F 54.5 °F 75% 30.04 in 10.0 mi ENE 13.8 mph 18.4 mph N/A   Overcast
6:15 PM 62.1 °F 54.3 °F 76% 30.04 in 10.0 mi ENE 5.8 mph 9.2 mph N/A   Overcast
6:35 PM 61.9 °F 54.1 °F 76% 30.03 in 10.0 mi ENE 11.5 mph 18.4 mph N/A   Overcast
6:55 PM 61.5 °F 53.6 °F 75% 30.03 in 10.0 mi ENE 10.4 mph - N/A   Overcast
7:15 PM 61.0 °F 53.8 °F 77% 30.03 in 10.0 mi ENE 12.7 mph 21.9 mph N/A   Overcast
7:35 PM 60.4 °F 53.8 °F 79% 30.03 in 10.0 mi East 12.7 mph 20.7 mph N/A   Overcast
7:55 PM 59.9 °F 53.8 °F 80% 30.04 in 10.0 mi East 13.8 mph 20.7 mph N/A   Overcast
8:15 PM 59.7 °F 53.6 °F 80% 30.05 in 10.0 mi ENE 9.2 mph 20.7 mph N/A   Overcast
8:35 PM 59.2 °F 53.6 °F 82% 30.05 in 10.0 mi ENE 8.1 mph 19.6 mph N/A   Overcast
8:55 PM 58.8 °F 53.6 °F 83% 30.06 in 10.0 mi ENE 8.1 mph 19.6 mph N/A   Overcast
9:15 PM 58.6 °F 53.6 °F 83% 30.06 in 10.0 mi East 8.1 mph - N/A   Overcast
9:35 PM 58.5 °F 53.6 °F 84% 30.05 in 10.0 mi ENE 15.0 mph 19.6 mph N/A   Overcast
9:55 PM 58.5 °F 53.6 °F 84% 30.06 in 10.0 mi ENE 9.2 mph 16.1 mph N/A   Overcast
10:15 PM 58.1 °F 53.8 °F 86% 30.05 in 10.0 mi ENE 9.2 mph - N/A   Overcast
10:35 PM 58.1 °F 53.8 °F 86% 30.06 in 10.0 mi ENE 10.4 mph 17.3 mph N/A   Overcast
10:55 PM 57.9 °F 54.0 °F 87% 30.05 in 7.0 mi ENE 9.2 mph 16.1 mph N/A   Overcast
11:15 PM 57.7 °F 54.0 °F 87% 30.05 in 7.0 mi ENE 11.5 mph 18.4 mph N/A   Overcast
11:35 PM 58.1 °F 54.1 °F 87% 30.05 in 7.0 mi East 11.5 mph - N/A   Overcast
11:55 PM 58.1 °F 54.1 °F 87% 30.04 in 7.0 mi ENE 10.4 mph 18.4 mph N/A   Overcast